Home   Weather   Kralendijk   Past weeks

Flag for Caribbean Netherlands Past Weather in Kralendijk, Bonaire, Caribbean Netherlands — Yesterday and Last 2 Weeks

88 °F

Passing clouds.

Feels Like: 98 °F
Forecast: N/A
Wind: 9 mph from Southeast

Location: Flamingo Airport - Bonaire

Current Time: Oct 27, 2016 at 12:46:38 PM

Latest Report: Oct 27, 2016 at 11:55 AM

Visibility: N/A

Pressure: 29.80 "Hg

Humidity: 66%

Dew Point: 75 °F

Location of KralendijkLocation

Past Weather in Kralendijk — Graph


Kralendijk Temperature Yesterday

Maximum temperature yesterday: 88 °F (at 9:55 AM)
Minimum temperature yesterday: 79 °F (at 6:55 AM)
Average temperature yesterday: 83 °F

High & Low Weather Summary for the Past Weeks

High93 °F (Oct 18, 12:55 PM)100% (Oct 26, 6:55 AM)29.95 "Hg (Oct 26, 6:55 AM)
Low75 °F (Oct 19, 3:55 AM)55% (Oct 24, 12:55 PM)29.71 "Hg (Oct 17, 3:55 PM)
Average85 °F75%29.82 "Hg
* Reported Oct 12 10:55 AM — Oct 27 10:55 AM, Kralendijk, Weather by CustomWeather, © 2016

Note: Actual official high and low records may vary slightly from our data, if they occured in-between our weather recording intervals... More about our weather records


Kralendijk Weather History for the Previous 24 Hours

Scroll right to see more
Time TempWeatherWind HumidityBarometerVisibility
10:55 AM
Thu, Oct 27
88 °FScattered clouds.10 mph66%29.83 "HgN/A
9:55 AM86 °FScattered clouds.9 mph75%29.86 "HgN/A
8:55 AM86 °FPartly sunny.9 mph70%29.83 "HgN/A
7:55 AM82 °FBroken clouds.3 mph84%29.80 "HgN/A
6:55 AM81 °FClear.1 mph94%29.77 "HgN/A
5:55 AM79 °FPassing clouds.2 mph94%29.77 "HgN/A
4:55 AM79 °FPassing clouds.2 mph94%29.74 "HgN/A
3:55 AM79 °FWarm.3 mph94%29.74 "HgN/A
2:55 AM81 °FDrizzle. Mostly cloudy.6 mph84%29.74 "HgN/A
1:55 AM79 °FClear.1 mph94%29.77 "HgN/A
12:55 AM81 °FPartly cloudy.3 mph89%29.80 "HgN/A
11:55 PM
Wed, Oct 26
81 °FPassing clouds.8 mph84%29.80 "HgN/A
10:55 PM81 °FSprinkles. Partly cloudy.6 mph89%29.80 "HgN/A
9:55 PM82 °FWarm.5 mph84%29.80 "HgN/A
8:55 PM82 °FWarm.5 mph84%29.77 "HgN/A
7:55 PM82 °FPassing clouds.3 mph84%29.74 "HgN/A
6:55 PM82 °FPassing clouds.5 mph84%29.74 "HgN/A
5:55 PM84 °FPassing clouds.7 mph74%29.71 "HgN/A
4:55 PM86 °FScattered clouds.6 mph70%29.71 "HgN/A
3:55 PM84 °FPassing clouds.6 mph79%29.71 "HgN/A
2:55 PM84 °FScattered clouds.1 mph84%29.74 "HgN/A
1:55 PM79 °FPartly sunny.7 mph94%29.77 "HgN/A
12:55 PM82 °FDrizzle. Mostly cloudy.5 mph84%29.80 "HgN/A
Weather by CustomWeather, © 2016

See weather overviewHow to use our weather pages